This is the latest recevied weather packets stored in our database for station/object HB9EYW-6. If no packets are shown the sender has not sent any weather packets the latest 10 day(s).
| Time | Temp. | Humidity | Pressure | Rain* | Wind** | Luminosity | Snow |
|---|---|---|---|---|---|---|---|
| 1778260203 | 23.89° C | 15% | 0 hPa | 0 mm | - | - | - |
| 1778259903 | 23.89° C | 13% | 0 hPa | 0 mm | - | - | - |
| 1778259604 | 23.89° C | 13% | 0 hPa | 0 mm | - | - | - |
| 1778259303 | 24.44° C | 14% | 0 hPa | 0 mm | - | - | - |
| 1778259003 | 23.89° C | 14% | 0 hPa | 0 mm | - | - | - |
| 1778258705 | 23.89° C | 13% | 0 hPa | 0 mm | - | - | - |
| 1778258405 | 23.89° C | 14% | 0 hPa | 0 mm | - | - | - |
| 1778258105 | 23.89° C | 13% | 0 hPa | 0 mm | - | - | - |
| 1778257805 | 24.44° C | 13% | 0 hPa | 0 mm | - | - | - |
| 1778257505 | 24.44° C | 12% | 0 hPa | 0 mm | - | - | - |
| 1778257205 | 25.56° C | 10% | 0 hPa | 0 mm | - | - | - |
| 1778256905 | 26.11° C | 12% | 0 hPa | 0 mm | - | - | - |
| 1778256605 | 26.11° C | 13% | 0 hPa | 0 mm | - | - | - |
| 1778256305 | 25.56° C | 12% | 0 hPa | 0 mm | - | - | - |
| 1778256005 | 25.56° C | 12% | 0 hPa | 0 mm | - | - | - |
| 1778255705 | 25.56° C | 14% | 0 hPa | 0 mm | - | - | - |
| 1778255405 | 25° C | 14% | 0 hPa | 0 mm | - | - | - |
| 1778255105 | 25° C | 13% | 0 hPa | 0 mm | - | - | - |
| 1778254805 | 25° C | 15% | 0 hPa | 0 mm | - | - | - |
| 1778254505 | 25° C | 14% | 0 hPa | 0 mm | - | - | - |
| 1778254205 | 24.44° C | 15% | 0 hPa | 0 mm | - | - | - |
| 1778253905 | 25° C | 13% | 0 hPa | 0 mm | - | - | - |
| 1778253605 | 25° C | 13% | 0 hPa | 0 mm | - | - | - |
| 1778253305 | 25.56° C | 10% | 0 hPa | 0 mm | - | - | - |
| 1778253005 | 25.56° C | 14% | 0 hPa | 0 mm | - | - | - |
* Rain latest hour (hover to see other rain measurements)
** Current wind speed in m/s (hover to see current wind gust speed)